TimeCST,TemperatureF,Dew PointF,Humidity,Sea Level PressureIn,VisibilityMPH,Wind Direction,Wind SpeedMPH,Gust SpeedMPH,PrecipitationIn,Events,Conditions,WindDirDegrees,DateUTC
12:53 AM,18.0,10.9,74,30.25,10.0,North,10.4,-,N/A,,Overcast,10,2013-01-01 06:53:00
1:53 AM,17.1,9.0,71,30.27,10.0,North,8.1,-,N/A,,Overcast,360,2013-01-01 07:53:00
2:53 AM,16.0,9.0,74,30.28,10.0,North,8.1,-,N/A,,Mostly Cloudy,360,2013-01-01 08:53:00
3:53 AM,14.0,8.1,77,30.30,10.0,North,4.6,-,N/A,,Overcast,10,2013-01-01 09:53:00
4:53 AM,12.0,5.0,73,30.28,10.0,North,10.4,-,N/A,,Partly Cloudy,360,2013-01-01 10:53:00
5:53 AM,9.0,3.0,77,30.29,10.0,NNE,6.9,-,N/A,,Clear,20,2013-01-01 11:53:00
7:53 AM,6.1,-0.0,76,30.34,10.0,North,6.9,-,N/A,,Clear,10,2013-01-01 13:53:00
8:53 AM,8.1,1.9,76,30.37,10.0,North,3.5,-,N/A,,Partly Cloudy,10,2013-01-01 14:53:00
9:53 AM,10.0,1.9,70,30.38,10.0,NNW,4.6,-,N/A,,Overcast,340,2013-01-01 15:53:00
10:53 AM,12.9,3.0,65,30.39,10.0,NNW,4.6,-,N/A,,Scattered Clouds,340,2013-01-01 16:53:00
11:53 AM,15.1,3.9,61,30.37,10.0,North,8.1,-,N/A,,Mostly Cloudy,10,2013-01-01 17:53:00
12:53 PM,17.1,5.0,59,30.35,10.0,North,5.8,-,N/A,,Clear,10,2013-01-01 18:53:00
1:53 PM,18.0,5.0,57,30.34,10.0,Calm,Calm,-,N/A,,Mostly Cloudy,0,2013-01-01 19:53:00
2:53 PM,19.0,6.1,57,30.33,10.0,Calm,Calm,-,N/A,,Partly Cloudy,0,2013-01-01 20:53:00
3:53 PM,19.9,6.1,55,30.32,10.0,Calm,Calm,-,N/A,,Clear,0,2013-01-01 21:53:00
4:53 PM,17.1,6.1,62,30.32,10.0,Calm,Calm,-,N/A,,Clear,0,2013-01-01 22:53:00
5:53 PM,12.9,3.9,67,30.32,10.0,WSW,5.8,-,N/A,,Clear,250,2013-01-01 23:53:00
6:53 PM,12.9,3.0,65,30.31,10.0,WSW,3.5,-,N/A,,Clear,240,2013-01-02 00:53:00
7:53 PM,8.1,1.9,76,30.31,10.0,SSW,3.5,-,N/A,,Clear,210,2013-01-02 01:53:00
8:53 PM,10.9,3.9,73,30.31,10.0,Calm,Calm,-,N/A,,Clear,0,2013-01-02 02:53:00
9:53 PM,6.1,1.0,80,30.30,10.0,South,3.5,-,N/A,,Clear,190,2013-01-02 03:53:00
10:53 PM,10.0,3.0,73,30.27,10.0,South,3.5,-,N/A,,Clear,170,2013-01-02 04:53:00
11:53 PM,9.0,3.0,77,30.28,10.0,Calm,Calm,-,N/A,,Clear,0,2013-01-02 05:53:00